Regional Weather Roundup
Issued by NWS

Home | Current Version | Previous Version | Text Only | Print | Product List | Glossary Off
Versions: 1 2 3 4 5 6 7 8 9 10 11 12 13 14 15 16 17 18 19 20 21 22 23 24 25 26 27 28 29 30 31 32 33 34 35 36 37 38 39 40 41 42 43 44 45 46 47 48 49 50

000
ASUS43 KBIS 221531
RWRND
NORTH DAKOTA REGIONAL WEATHER ROUNDUP
NATIONAL WEATHER SERVICE EASTERN NORTH DAKOTA/GRAND FORKS ND
900 AM CST THU FEB 22 2018

  NOTE: "FAIR" INDICATES FEW OR NO CLOUDS BELOW 12,000 FEET WITH NO
  SIGNIFICANT WEATHER AND/OR OBSTRUCTIONS TO VISIBILITY.

NDZ001>003-009>011-017-221600-
...NORTHWEST NORTH DAKOTA...

CITY           SKY/WX    TMP DP  RH WIND       PRES   REMARKS
WILLISTON      FAIR     -10 -15  78 S3        30.25R
MINOT          FAIR      -2  -9  72 SW3       30.26R
MINOT AFB      FAIR      -7 -13  77 S7        30.26R WCI -22
$$

NDZ018>021-031>035-040>046-221600-
...SOUTHWEST NORTH DAKOTA...

CITY           SKY/WX    TMP DP  RH WIND       PRES   REMARKS
BISMARCK       FAIR      -5  -9  83 CALM      30.33R
DICKINSON      FAIR      -5 -14  65 CALM      30.18R
GARRISON         N/A     -8 -12  83 CALM      30.26S
HETTINGER      FAIR     -18 -22  82 CALM      30.21R
$$

NDZ004>008-012>016-024-026-027-054-221600-
...NORTHEAST NORTH DAKOTA...

CITY           SKY/WX    TMP DP  RH WIND       PRES   REMARKS
GRAND FORKS    FAIR      -1  -6  79 S8        30.44S WCI -15
GRAND FORKS AF FAIR      -1  -8  74 S9        30.42S WCI -17
DEVILS LAKE    FAIR      -2  -7  79 S3        30.34S
$$

NDZ022-023-025-028>030-036>039-047>053-221600-
...SOUTHEAST NORTH DAKOTA...

CITY           SKY/WX    TMP DP  RH WIND       PRES   REMARKS
JAMESTOWN      FAIR       1  -3  83 S9        30.35R WCI -14
FARGO          FAIR       8   1  73 S14       30.46S WCI  -8
WAHPETON       FAIR       7   0  72 SE13      30.49S WCI  -9
$$




USA.gov is the U.S. government's official web portal to all federal, state and local government web resources and services.